[[{"header":{"parameterUnit":"m.s-1","parameterCategory":1,"la1":30.2991,"la2":30.254,"lo1":-89.0895,"lo2":-89.0444,"dy":0.0017,"dx":0.0017,"nx":28,"ny":28,"refTime":"2025-04-09T21:00:00:Z","depth":0,"parameterNumber":2,"parameterNumberName":"U-component_of_WINDS"},"data":[0,0,0,0,0,0,0,0,0,0,0,0,0,0,0,0,0,0,0,0,0,0,0,0,0,0,0,0,0,0,0,0,0,0,0,0,0,0,0,0,0,0,0,0,0,0,0,0,0,0,0,0,0,0,0,0,0,0,2.6604,2.6605,0,2.664,2.6641,2.6641,2.6635,2.6634,2.6634,2.6633,2.6669,2.6671,2.6672,0,0,0,0,0,0,0,0,0,0,0,0,0,2.6531,2.6533,2.6604,2.6605,2.6605,2.664,2.6641,2.6641,2.6635,2.6634,2.6634,2.6633,2.6669,2.6671,2.6672,0,0,0,0,0,0,0,0,0,0,0,0,0,2.6565,2.6533,2.6604,2.6606,2.6607,2.664,2.6641,2.6641,2.6635,2.6634,2.6633,2.6632,2.6668,2.667,2.6673,2.6706,0,0,2.668,2.6681,0,0,0,0,0,0,0,0,2.6563,2.6567,2.6606,2.6606,2.6607,2.6632,2.6628,2.6663,2.6636,2.6624,2.6633,2.6632,2.6658,2.6661,2.667,2.6708,2.6709,2.668,2.6681,2.6682,2.6683,0,0,0,0,0,0,0,2.6561,2.6566,2.6619,2.6606,2.6607,2.6606,2.661,2.6635,2.6646,2.6625,2.6625,2.6629,2.6658,2.6667,2.667,2.671,2.668,2.6682,2.6683,2.6684,2.678,2.6781,0,0,0,0,0,0,2.6558,2.6564,2.6617,2.662,2.6582,2.6608,2.6612,2.6625,2.6646,2.6648,2.663,2.6629,2.6664,2.6668,2.6672,2.6713,2.6682,2.6685,2.6686,2.6778,2.678,2.6781,0,0,0,0,0,0,2.6556,2.6562,2.6616,2.6592,2.6599,2.661,2.6625,2.6626,2.6636,2.6649,2.6651,2.6638,2.6663,2.6668,2.6698,2.6714,2.6686,2.6688,2.6777,2.6779,2.678,2.6796,0,0,0,0,0,0,2.6554,2.6562,2.6574,2.6592,2.66,2.6641,2.6626,2.6628,2.664,2.6639,2.6657,2.6659,2.6663,2.6695,2.67,2.6717,2.669,2.6776,2.6778,2.678,2.6794,2.6798,2.6801,0,0,0,0,0,2.6551,2.6576,2.6575,2.6581,2.6615,2.6642,2.6647,2.6651,2.6641,2.6654,2.6663,2.6658,2.6712,2.6698,2.6704,2.6722,2.6775,2.6777,2.678,2.6792,2.6797,2.6801,0,0,0,0,0,0,2.6559,2.6579,2.6577,2.6608,2.6624,2.6641,2.6657,2.6656,2.6674,2.6672,2.6676,2.668,2.6711,2.6719,2.6703,2.6756,2.6742,2.6746,2.6749,2.6754,2.6758,2.6754,2.6692,0,0,0,0,0,2.6564,2.6584,2.6601,2.6627,2.6635,2.6645,2.6657,2.6659,2.6675,2.6681,2.6692,2.6708,2.6729,2.6742,2.6761,2.6796,2.68,2.6811,2.6815,2.6818,2.6821,2.6841,2.6847,2.6789,2.6789,2.6789,0,0,2.6575,2.6589,2.6601,2.6629,2.6641,2.6662,2.665,2.6673,2.6689,2.6684,2.6713,2.6723,2.6741,2.6773,2.6788,2.6781,2.6838,2.6821,2.6823,2.6825,2.6844,2.685,2.6855,2.6791,2.6791,2.679,0,0,2.6606,2.6618,2.6642,2.6655,2.6674,2.6681,2.6687,2.6706,2.6712,2.6741,2.6739,2.6759,2.6794,2.6807,2.6818,2.6858,2.6855,2.6865,2.6883,2.6903,2.6908,2.6912,2.6927,2.6932,2.6868,2.6868,2.6868,0,2.6617,2.6649,2.6654,2.6678,2.6691,2.669,2.6715,2.6727,2.6751,2.6761,2.6753,2.6798,2.681,2.6847,2.6857,2.6866,2.6874,2.6862,2.6907,2.6911,2.6915,2.6929,2.6934,2.6869,2.6869,2.6869,2.6869,0,2.6662,2.6685,2.6702,2.6727,2.6742,2.6766,2.6776,2.679,2.6792,2.68,2.6832,2.6847,2.687,2.6879,2.688,2.6917,2.6912,2.6906,2.6891,2.6921,2.6934,2.694,2.6871,2.687,2.687,2.687,0,0,2.6696,2.6726,2.6732,2.6744,2.6767,2.6784,2.681,2.6833,2.6846,2.6864,2.6886,2.6917,2.6912,2.6925,2.6928,2.6946,2.6978,2.6938,2.6938,2.6945,2.702,2.7024,2.703,2.6977,2.6978,2.6979,2.7019,0,2.6729,2.6773,2.6781,2.6819,2.6841,2.6842,2.6864,2.688,2.689,2.691,2.692,2.6942,2.6933,2.6942,2.6959,2.697,2.6993,2.6968,2.6997,2.6998,2.6992,2.7037,2.7042,2.7078,2.7024,2.7025,2.7025,0,2.6773,2.6794,2.6835,2.6857,2.6866,2.6886,2.6909,2.6928,2.6948,2.6954,2.697,2.6972,2.6999,2.6985,2.7023,2.7005,2.7018,2.7026,2.7027,2.703,2.7013,2.7041,2.709,2.7096,2.7034,2.7033,2.7032,0,2.6795,2.6832,2.6863,2.6873,2.6899,2.6913,2.6925,2.6944,2.6958,2.6979,2.6989,2.7013,2.7025,2.7044,2.7053,2.7041,2.7091,2.7077,2.7096,2.7096,2.7106,2.7105,2.7157,2.7115,2.7115,2.7114,2.7114,0,2.6831,2.6856,2.6873,2.6891,2.692,2.6929,2.6958,2.6969,2.6986,2.7008,2.701,2.703,2.7041,2.7063,2.707,2.7101,2.7107,2.7112,2.7114,2.7112,2.7111,2.7119,2.7117,2.7116,2.7116,2.7115,2.7115,0,2.6859,2.6871,2.6904,2.6927,2.6933,2.6954,2.6974,2.6992,2.7002,2.7029,2.7036,2.7052,2.7079,2.709,2.7122,2.7127,2.7162,2.7162,2.7156,2.7156,2.7175,2.7173,2.7235,2.7244,2.7195,2.7196,2.7196,0,2.688,2.69,2.6926,2.6941,2.6953,2.6977,2.6992,2.7003,2.7019,2.7045,2.706,2.7087,2.7108,2.715,2.7165,2.719,2.719,2.721,2.7194,2.7192,2.7191,2.7189,2.7192,2.7213,2.7213,2.7214,2.7214,0,2.6918,2.6924,2.6946,2.6972,2.699,2.7011,2.703,2.7042,2.7056,2.7075,2.7102,2.7119,2.7153,2.7179,2.7206,2.7218,2.7219,2.722,2.7225,2.7223,2.7219,2.7222,2.7163,2.7218,2.7217,2.7217,2.7217,2.7217,2.6944,2.6962,2.6984,2.7009,2.7026,2.7045,2.7064,2.7078,2.7101,2.7129,2.7134,2.7164,2.7186,2.7221,2.7235,2.7259,2.7254,2.7262,2.7264,2.7266,2.7268,2.7216,2.7264,2.7264,2.7264,2.7263,2.7263,0,2.6982,2.6997,2.702,2.7049,2.7069,2.7069,2.7092,2.7109,2.7135,2.7156,2.7178,2.721,2.7237,2.7255,2.7282,2.7297,2.7298,2.7304,2.7303,2.7306,2.727,2.7262,2.7303,2.7303,2.7303,2.7303,2.7303,2.7303,2.7004,2.7036,2.7044,2.7085,2.7099,2.7129,2.7142,2.716,2.7177,2.7213,2.7235,2.7247,2.7267,2.7296,2.7321,2.7326,2.7336,2.7342,2.7346,2.7312,2.7308,2.7304,2.7297,2.7344,2.7344,2.738,2.738,2.738]},{"header":{"parameterUnit":"m.s-1","parameterCategory":1,"la1":30.2991,"la2":30.254,"lo1":-89.0895,"lo2":-89.0444,"dy":0.0017,"dx":0.0017,"nx":28,"ny":28,"refTime":"2025-04-09T21:00:00:Z","depth":0,"parameterNumber":3,"parameterNumberName":"V-component_of_WINDS"},"data":[0,0,0,0,0,0,0,0,0,0,0,0,0,0,0,0,0,0,0,0,0,0,0,0,0,0,0,0,0,0,0,0,0,0,0,0,0,0,0,0,0,0,0,0,0,0,0,0,0,0,0,0,0,0,0,0,0,0,-1.1095,-1.1096,0,-1.1205,-1.1206,-1.1207,-1.124,-1.1239,-1.1238,-1.1238,-1.1351,-1.1354,-1.1358,0,0,0,0,0,0,0,0,0,0,0,0,0,-1.0913,-1.0916,-1.1094,-1.1096,-1.1097,-1.1205,-1.1206,-1.1208,-1.124,-1.1239,-1.1238,-1.1238,-1.135,-1.1354,-1.1358,0,0,0,0,0,0,0,0,0,0,0,0,0,-1.1004,-1.0917,-1.1094,-1.1126,-1.113,-1.1204,-1.1206,-1.1208,-1.124,-1.1239,-1.1238,-1.1237,-1.1348,-1.1353,-1.1359,-1.1409,0,0,-1.1375,-1.1377,0,0,0,0,0,0,0,0,-1.0999,-1.1011,-1.112,-1.1124,-1.1129,-1.1208,-1.1184,-1.1275,-1.124,-1.1198,-1.1238,-1.1237,-1.1304,-1.1313,-1.1335,-1.1414,-1.1419,-1.1375,-1.1379,-1.1381,-1.1382,0,0,0,0,0,0,0,-1.0993,-1.1007,-1.1138,-1.1122,-1.1127,-1.1136,-1.1147,-1.1201,-1.1255,-1.1202,-1.1204,-1.1217,-1.1306,-1.133,-1.1338,-1.1421,-1.1375,-1.138,-1.1383,-1.1385,-1.1548,-1.1549,0,0,0,0,0,0,-1.0981,-1.1001,-1.1135,-1.1141,-1.1061,-1.1139,-1.1153,-1.1183,-1.1254,-1.1264,-1.1218,-1.1218,-1.1321,-1.1332,-1.1342,-1.1407,-1.1381,-1.1386,-1.1389,-1.1547,-1.1549,-1.155,0,0,0,0,0,0,-1.0977,-1.0993,-1.113,-1.1072,-1.109,-1.1144,-1.1177,-1.1186,-1.121,-1.1266,-1.1276,-1.1232,-1.1321,-1.1335,-1.1393,-1.1411,-1.1388,-1.1393,-1.1546,-1.1548,-1.1549,-1.1536,0,0,0,0,0,0,-1.0972,-1.0991,-1.101,-1.1072,-1.1093,-1.1178,-1.1178,-1.1189,-1.1219,-1.1221,-1.1282,-1.1292,-1.1322,-1.1384,-1.1398,-1.1418,-1.1397,-1.1544,-1.1547,-1.1549,-1.1535,-1.1537,-1.1539,0,0,0,0,0,-1.0965,-1.1002,-1.1011,-1.1027,-1.1118,-1.1179,-1.1191,-1.1225,-1.122,-1.1241,-1.1277,-1.129,-1.1407,-1.139,-1.1405,-1.1428,-1.1543,-1.1546,-1.1549,-1.1534,-1.1537,-1.1539,0,0,0,0,0,0,-1.094,-1.101,-1.1021,-1.1079,-1.1123,-1.1184,-1.1211,-1.1226,-1.1272,-1.1271,-1.1311,-1.1325,-1.138,-1.141,-1.1389,-1.1481,-1.1476,-1.1481,-1.146,-1.1463,-1.1465,-1.1456,-1.1402,0,0,0,0,0,-1.0941,-1.0985,-1.1044,-1.1089,-1.111,-1.1157,-1.1184,-1.1207,-1.1254,-1.1272,-1.1313,-1.1358,-1.1405,-1.1436,-1.1482,-1.154,-1.1554,-1.1563,-1.1565,-1.1566,-1.1571,-1.1605,-1.161,-1.1558,-1.1558,-1.1558,0,0,-1.0944,-1.0988,-1.1013,-1.1085,-1.1122,-1.1166,-1.1172,-1.1219,-1.1252,-1.1279,-1.1337,-1.1368,-1.1421,-1.148,-1.1507,-1.1506,-1.1588,-1.1569,-1.157,-1.1574,-1.1608,-1.1613,-1.1618,-1.156,-1.156,-1.1559,0,0,-1.0972,-1.1009,-1.1052,-1.1089,-1.1144,-1.1175,-1.1185,-1.1245,-1.1267,-1.1326,-1.1347,-1.1388,-1.1468,-1.1506,-1.1535,-1.158,-1.1594,-1.1594,-1.1604,-1.1637,-1.1641,-1.1645,-1.1662,-1.1668,-1.1598,-1.1598,-1.1598,0,-1.0969,-1.1037,-1.1072,-1.1118,-1.115,-1.1177,-1.1221,-1.1255,-1.1323,-1.1344,-1.1342,-1.1444,-1.1482,-1.155,-1.1561,-1.1584,-1.1598,-1.1587,-1.1638,-1.1642,-1.1646,-1.1663,-1.1669,-1.1598,-1.1598,-1.1598,-1.1598,0,-1.1031,-1.1078,-1.1105,-1.1171,-1.1206,-1.125,-1.1293,-1.1324,-1.1344,-1.1375,-1.1435,-1.1481,-1.1538,-1.1556,-1.1575,-1.1628,-1.1626,-1.163,-1.1625,-1.165,-1.1667,-1.1673,-1.1597,-1.1598,-1.1598,-1.1598,0,0,-1.1046,-1.1131,-1.1141,-1.1172,-1.1236,-1.1273,-1.1319,-1.1375,-1.1402,-1.1448,-1.1489,-1.1557,-1.1562,-1.1596,-1.162,-1.1648,-1.1683,-1.165,-1.1652,-1.1655,-1.1745,-1.1742,-1.1749,-1.1692,-1.1694,-1.1695,-1.1741,0,-1.1083,-1.1167,-1.1201,-1.1269,-1.1314,-1.1341,-1.1382,-1.1426,-1.1457,-1.1499,-1.1534,-1.1582,-1.1584,-1.1605,-1.1635,-1.1672,-1.1701,-1.1669,-1.1732,-1.1733,-1.1718,-1.1757,-1.1754,-1.1795,-1.1748,-1.1749,-1.175,0,-1.1137,-1.1185,-1.1258,-1.1318,-1.1338,-1.1374,-1.1429,-1.1469,-1.152,-1.1541,-1.1579,-1.1602,-1.1653,-1.1645,-1.1716,-1.1693,-1.1721,-1.1743,-1.1746,-1.1754,-1.1743,-1.1767,-1.1809,-1.1816,-1.176,-1.1759,-1.1758,0,-1.1142,-1.1224,-1.1279,-1.1305,-1.1376,-1.1401,-1.1432,-1.1482,-1.1514,-1.1563,-1.1584,-1.1637,-1.1667,-1.1708,-1.1745,-1.1735,-1.1813,-1.1808,-1.1833,-1.1832,-1.1848,-1.1847,-1.1896,-1.1864,-1.1864,-1.1864,-1.1864,0,-1.1181,-1.1225,-1.1283,-1.1316,-1.1367,-1.1406,-1.1455,-1.1488,-1.1533,-1.1574,-1.16,-1.1639,-1.1684,-1.1729,-1.1758,-1.1813,-1.1826,-1.1845,-1.1852,-1.1843,-1.1841,-1.1862,-1.1861,-1.1866,-1.1866,-1.1865,-1.1865,0,-1.1195,-1.1235,-1.1297,-1.136,-1.1377,-1.1412,-1.1466,-1.15,-1.1533,-1.1585,-1.1599,-1.165,-1.1704,-1.1745,-1.1814,-1.1834,-1.1894,-1.1901,-1.1876,-1.188,-1.1903,-1.1901,-1.1969,-1.1981,-1.194,-1.194,-1.194,0,-1.1217,-1.1252,-1.1319,-1.1348,-1.1379,-1.1427,-1.146,-1.15,-1.1534,-1.1596,-1.1623,-1.1678,-1.1725,-1.181,-1.1854,-1.1908,-1.1917,-1.1937,-1.1925,-1.1916,-1.1919,-1.1917,-1.1921,-1.1939,-1.1939,-1.1939,-1.194,0,-1.1253,-1.1272,-1.1318,-1.1373,-1.1412,-1.1457,-1.1502,-1.1525,-1.1574,-1.161,-1.1666,-1.1702,-1.1774,-1.183,-1.1888,-1.1921,-1.1939,-1.1943,-1.1952,-1.1943,-1.1928,-1.1938,-1.1882,-1.1941,-1.1941,-1.1941,-1.1941,-1.1941,-1.1273,-1.1305,-1.1358,-1.141,-1.1449,-1.1491,-1.1527,-1.1564,-1.1611,-1.1673,-1.1694,-1.1751,-1.1803,-1.1884,-1.1917,-1.1964,-1.1964,-1.1976,-1.198,-1.1982,-1.1982,-1.192,-1.1974,-1.1974,-1.1974,-1.1974,-1.1974,0,-1.1311,-1.1346,-1.1394,-1.1457,-1.1498,-1.1511,-1.1563,-1.1597,-1.1647,-1.1694,-1.174,-1.1805,-1.1859,-1.1908,-1.1965,-1.1992,-1.2002,-1.2006,-1.2005,-1.2012,-1.1978,-1.1965,-1.1997,-1.1997,-1.1997,-1.1997,-1.1997,-1.1997,-1.1335,-1.1392,-1.1417,-1.1494,-1.1529,-1.1586,-1.1615,-1.1654,-1.1692,-1.1763,-1.1809,-1.184,-1.1888,-1.1949,-1.2,-1.2013,-1.2033,-1.2035,-1.205,-1.2017,-1.2015,-1.2012,-1.2,-1.2039,-1.2039,-1.2081,-1.2081,-1.2082]}]]